Location: *
(48.8780°N, 19.2358°E)
Time: 07:48:28
(UTC+00:00)

STARLINK-51 - Pass Details

Date: 18 October 2019
Orbit: 548 x 551 km, 53.0° (Epoch: 14 November)

Event Time Altitude Azimuth Distance (km) Brightness Sun altitude
Rises 17:03:33 0° 263° (W) 2,714 9.1 -13.1°
Reaches altitude 10° 17:05:49 10° 268° (W) 1,822 7.8 -13.5°
Maximum altitude 17:09:54 55° 347° (NNW) 663 4.1 -14.1°
Enters shadow 17:12:30 21° 59° (ENE) 1,275 5.0 -14.6°
